,,,PA_Meas_PMT16A,,PR_Meas_QMR101_102,,RH_Meas_QMH101,,SR_Meas_QMS101,,TA_Meas_QMH101,,GenWind,,GenWind,
date,time,status,PA,status,PR,status,RH,status,SR,status,TA,status,DirAvg,status,SpdAvg,
2010-03-30, 00:00:04,VALID,1001.68,VALID,0,VALID,91.2121,VALID,0,VALID,24.8722,VALID,78,VALID,0,
2010-03-30, 00:01:04,VALID,1001.68,VALID,0,VALID,91.2579,VALID,0,VALID,24.8722,VALID,63,VALID,0.590234,
2010-03-30, 00:02:04,VALID,1001.67,VALID,0,VALID,91.1511,VALID,0,VALID,24.8722,VALID,63,VALID,0.702344,
2010-03-30, 00:03:04,VALID,1001.66,VALID,0,VALID,91.1511,VALID,0,VALID,24.8527,VALID,64,VALID,0.560938,
2010-03-30, 00:04:04,VALID,1001.67,VALID,0,VALID,91.235,VALID,0,VALID,24.8722,VALID,64,VALID,0.530859,
2010-03-30, 00:05:04,VALID,1001.64,VALID,0,VALID,91.2655,VALID,0,VALID,24.8722,VALID,63,VALID,0.431641,
2010-03-30, 00:06:04,VALID,1001.64,VALID,0,VALID,91.2197,VALID,0,VALID,24.8722,VALID,63,VALID,0.410156,
2010-03-30, 00:07:04,VALID,1001.59,VALID,0,VALID,91.1892,VALID,0,VALID,24.8527,VALID,50,VALID,0.417969,
2010-03-30, 00:08:04,VALID,1001.59,VALID,0,VALID,91.1663,VALID,0,VALID,24.8527,VALID,50,VALID,0.371875,
2010-03-30, 00:09:04,VALID,1001.53,VALID,0,VALID,91.0519,VALID,0,VALID,24.8332,VALID,50,VALID,0.435156,
2010-03-30, 00:10:04,VALID,1001.5,VALID,0,VALID,91.0824,VALID,0,VALID,24.8136,VALID,50,VALID,0.452344,
2010-03-30, 00:11:04,VALID,1001.5,VALID,0,VALID,91.1129,VALID,0,VALID,24.7941,VALID,44,VALID,0,
2010-03-30, 00:12:04,VALID,1001.48,VALID,0,VALID,91.2884,VALID,0,VALID,24.7941,VALID,30,VALID,0,
2010-03-30, 00:13:04,VALID,1001.42,VALID,0,VALID,91.3189,VALID,0,VALID,24.8136,VALID,30,VALID,0,
2010-03-30, 00:14:04,VALID,1001.46,VALID,0,VALID,91.2426,VALID,0,VALID,24.7941,VALID,30,VALID,0,
2010-03-30, 00:15:04,VALID,1001.43,VALID,0,VALID,91.1053,VALID,0,VALID,24.7551,VALID,29,VALID,0.189453,
2010-03-30, 00:16:04,VALID,1001.44,VALID,0,VALID,91.2045,VALID,0,VALID,24.716,VALID,27,VALID,0.941016,
2010-03-30, 00:17:04,VALID,1001.39,VALID,0,VALID,91.2197,VALID,0,VALID,24.716,VALID,24,VALID,0.855469,
2010-03-30, 00:18:04,VALID,1001.4,VALID,0,VALID,91.1892,VALID,0,VALID,24.677,VALID,16,VALID,0.802734,
2010-03-30, 00:19:04,VALID,1001.41,VALID,0,VALID,91.2655,VALID,0,VALID,24.6166,VALID,16,VALID,0.715625,
2010-03-30, 00:20:04,VALID,1001.37,VALID,0,VALID,91.3876,VALID,0,VALID,24.6184,VALID,16,VALID,0.835547,
2010-03-30, 00:21:04,VALID,1001.36,VALID,0,VALID,91.3952,VALID,0,VALID,24.6184,VALID,16,VALID,0.851953,
2010-03-30, 00:22:04,VALID,1001.35,VALID,0,VALID,91.3571,VALID,0,VALID,24.5989,VALID,16,VALID,0.667969,
2010-03-30, 00:23:04,VALID,1001.36,VALID,0,VALID,91.296,VALID,0,VALID,24.5385,VALID,16,VALID,0.792188,
2010-03-30, 00:24:04,VALID,1001.32,VALID,0,VALID,91.3876,VALID,0,VALID,24.5404,VALID,19,VALID,0.776953,
2010-03-30, 00:25:04,VALID,1001.33,VALID,0,VALID,91.4334,VALID,0,VALID,24.5209,VALID,19,VALID,0.739062,
2010-03-30, 00:26:04,VALID,1001.3,VALID,0,VALID,91.4868,VALID,0,VALID,24.5013,VALID,19,VALID,0.655469,
2010-03-30, 00:27:04,VALID,1001.28,VALID,0,VALID,91.5173,VALID,0,VALID,24.48,VALID,19,VALID,0.651172,
2010-03-30, 00:28:04,VALID,1001.28,VALID,0,VALID,91.6165,VALID,0,VALID,24.4604,VALID,20,VALID,0.666406,
2010-03-30, 00:29:04,VALID,1001.25,VALID,0,VALID,91.6623,VALID,0,VALID,24.5013,VALID,20,VALID,0.527734,
2010-03-30, 00:30:04,VALID,1001.28,VALID,0,VALID,91.6775,VALID,0,VALID,24.5013,VALID,20,VALID,0.608984,
2010-03-30, 00:31:04,VALID,1001.26,VALID,0,VALID,91.6241,VALID,0,VALID,24.5013,VALID,20,VALID,0.767969,
2010-03-30, 00:32:04,VALID,1001.27,VALID,0,VALID,91.7538,VALID,0,VALID,24.4818,VALID,20,VALID,0.914063,
2010-03-30, 00:33:04,VALID,1001.21,VALID,0,VALID,91.8148,VALID,0,VALID,24.5013,VALID,20,VALID,0.892578,
2010-03-30, 00:34:04,VALID,1001.23,VALID,0,VALID,91.7614,VALID,0,VALID,24.5013,VALID,21,VALID,0.726563,
2010-03-30, 00:35:04,VALID,1001.22,VALID,0,VALID,91.7233,VALID,0,VALID,24.5013,VALID,22,VALID,0.680078,
2010-03-30, 00:36:04,VALID,1001.22,VALID,0,VALID,91.6775,VALID,0,VALID,24.4818,VALID,36,VALID,0.65625,
2010-03-30, 00:37:04,VALID,1001.19,VALID,0,VALID,91.7843,VALID,0,VALID,24.4623,VALID,41,VALID,0.662109,
2010-03-30, 00:38:04,VALID,1001.19,VALID,0,VALID,91.8683,VALID,0,VALID,24.4818,VALID,50,VALID,0.767969,
2010-03-30, 00:39:04,VALID,1001.16,VALID,0,VALID,91.9064,VALID,0,VALID,24.5227,VALID,52,VALID,0.775781,
2010-03-30, 00:40:04,VALID,1001.17,VALID,0,VALID,91.8835,VALID,0,VALID,24.5013,VALID,53,VALID,0.727734,
2010-03-30, 00:41:04,VALID,1001.15,VALID,0,VALID,91.9217,VALID,0,VALID,24.5209,VALID,53,VALID,0.66875,
2010-03-30, 00:42:04,VALID,1001.14,VALID,0,VALID,91.8683,VALID,0,VALID,24.5404,VALID,54,VALID,0.707031,
2010-03-30, 00:43:04,VALID,1001.12,VALID,0,VALID,91.792,VALID,0,VALID,24.5209,VALID,54,VALID,0.610937,
2010-03-30, 00:44:04,VALID,1001.13,VALID,0,VALID,91.7385,VALID,0,VALID,24.5209,VALID,54,VALID,0.478906,
2010-03-30, 00:45:04,VALID,1001.09,VALID,0,VALID,91.6317,VALID,0,VALID,24.5013,VALID,54,VALID,0.25625,
2010-03-30, 00:46:04,VALID,1001.08,VALID,0,VALID,91.6394,VALID,0,VALID,24.4623,VALID,54,VALID,0,
2010-03-30, 00:47:04,VALID,1001.07,VALID,0,VALID,91.6775,VALID,0,VALID,24.4623,VALID,54,VALID,0,
2010-03-30, 00:48:04,VALID,1001.09,VALID,0,VALID,91.6317,VALID,0,VALID,24.4428,VALID,54,VALID,0,
2010-03-30, 00:49:04,VALID,1001.07,VALID,0,VALID,91.7538,VALID,0,VALID,24.4428,VALID,54,VALID,0,
2010-03-30, 00:50:04,VALID,1001.07,VALID,0,VALID,91.7462,VALID,0,VALID,24.4428,VALID,54,VALID,0,
2010-03-30, 00:51:04,VALID,1001.08,VALID,0,VALID,91.7614,VALID,0,VALID,24.4446,VALID,54,VALID,0,
2010-03-30, 00:52:04,VALID,1001.05,VALID,0,VALID,91.7996,VALID,0,VALID,24.4623,VALID,54,VALID,0,
2010-03-30, 00:53:04,VALID,1001.03,VALID,0,VALID,91.792,VALID,0,VALID,24.4428,VALID,54,VALID,0,
2010-03-30, 00:54:04,VALID,1001,VALID,0,VALID,91.7538,VALID,0,VALID,24.4428,VALID,54,VALID,0,
2010-03-30, 00:55:04,VALID,1000.96,VALID,0,VALID,91.7233,VALID,0,VALID,24.4233,VALID,54,VALID,0,
2010-03-30, 00:56:04,VALID,1000.93,VALID,0,VALID,91.7691,VALID,0,VALID,24.4233,VALID,54,VALID,0,
2010-03-30, 00:57:04,VALID,1000.92,VALID,0,VALID,91.7843,VALID,0,VALID,24.4233,VALID,54,VALID,0,
2010-03-30, 00:58:04,VALID,1000.9,VALID,0,VALID,91.7843,VALID,0,VALID,24.4037,VALID,54,VALID,0,
2010-03-30, 00:59:04,VALID,1000.87,VALID,0,VALID,91.7538,VALID,0,VALID,24.4037,VALID,54,VALID,0,
2010-03-30, 01:00:04,VALID,1000.88,VALID,0,VALID,91.7691,VALID,0,VALID,24.4037,VALID,54,VALID,0,
2010-03-30, 01:01:04,VALID,1000.85,VALID,0,VALID,91.708,VALID,0,VALID,24.3842,VALID,54,VALID,0,
2010-03-30, 01:02:04,VALID,1000.85,VALID,0,VALID,91.6394,VALID,0,VALID,24.3452,VALID,54,VALID,0,
2010-03-30, 01:03:04,VALID,1000.86,VALID,0,VALID,91.6241,VALID,0,VALID,24.3257,VALID,54,VALID,0,
2010-03-30, 01:04:04,VALID,1000.83,VALID,0,VALID,91.6775,VALID,0,VALID,24.2653,VALID,54,VALID,0,
2010-03-30, 01:05:04,VALID,1000.81,VALID,0,VALID,91.7538,VALID,0,VALID,24.2866,VALID,54,VALID,0,
2010-03-30, 01:06:04,VALID,1000.79,VALID,0,VALID,91.792,VALID,0,VALID,24.2866,VALID,54,VALID,0,
2010-03-30, 01:07:04,VALID,1000.77,VALID,0,VALID,91.792,VALID,0,VALID,24.2671,VALID,54,VALID,0,
2010-03-30, 01:08:04,VALID,1000.76,VALID,0,VALID,91.7462,VALID,0,VALID,24.2476,VALID,54,VALID,0,
2010-03-30, 01:09:04,VALID,1000.73,VALID,0,VALID,91.708,VALID,0,VALID,24.2281,VALID,54,VALID,0,
2010-03-30, 01:10:04,VALID,1000.74,VALID,0,VALID,91.7767,VALID,0,VALID,24.2086,VALID,54,VALID,0,
2010-03-30, 01:11:04,VALID,1000.74,VALID,0,VALID,91.8911,VALID,0,VALID,24.2281,VALID,54,VALID,0,
2010-03-30, 01:12:04,VALID,1000.75,VALID,0,VALID,91.9369,VALID,0,VALID,24.2476,VALID,54,VALID,0,
2010-03-30, 01:13:04,VALID,1000.73,VALID,0,VALID,91.9293,VALID,0,VALID,24.2281,VALID,54,VALID,0,
2010-03-30, 01:14:04,VALID,1000.72,VALID,0,VALID,91.8148,VALID,0,VALID,24.2281,VALID,54,VALID,0,
2010-03-30, 01:15:04,VALID,1000.73,VALID,0,VALID,91.7385,VALID,0,VALID,24.1696,VALID,54,VALID,0,
2010-03-30, 01:16:04,VALID,1000.7,VALID,0,VALID,91.8072,VALID,0,VALID,24.1305,VALID,54,VALID,0,
2010-03-30, 01:17:04,VALID,1000.72,VALID,0,VALID,91.8454,VALID,0,VALID,24.1305,VALID,54,VALID,0,
2010-03-30, 01:18:04,VALID,1000.73,VALID,0,VALID,91.8148,VALID,0,VALID,24.111,VALID,54,VALID,0,
2010-03-30, 01:19:04,VALID,1000.73,VALID,0,VALID,91.8301,VALID,0,VALID,24.0915,VALID,54,VALID,0,
2010-03-30, 01:20:04,VALID,1000.71,VALID,0,VALID,91.7691,VALID,0,VALID,24.0329,VALID,54,VALID,0,
2010-03-30, 01:21:04,VALID,1000.7,VALID,0,VALID,91.853,VALID,0,VALID,24.0134,VALID,54,VALID,0,
2010-03-30, 01:22:04,VALID,1000.71,VALID,0,VALID,91.8606,VALID,0,VALID,23.9744,VALID,54,VALID,0,
2010-03-30, 01:23:04,VALID,1000.72,VALID,0,VALID,91.9751,VALID,0,VALID,23.9549,VALID,54,VALID,0,
2010-03-30, 01:24:04,VALID,1000.69,VALID,0,VALID,92.1277,VALID,0,VALID,23.9744,VALID,54,VALID,0,
2010-03-30, 01:25:04,VALID,1000.7,VALID,0,VALID,92.1353,VALID,0,VALID,23.9939,VALID,54,VALID,0,
2010-03-30, 01:26:04,VALID,1000.68,VALID,0,VALID,92.1124,VALID,0,VALID,23.9939,VALID,54,VALID,0,
2010-03-30, 01:27:04,VALID,1000.7,VALID,0,VALID,92.2116,VALID,0,VALID,24.0134,VALID,54,VALID,0,
2010-03-30, 01:28:04,VALID,1000.69,VALID,0,VALID,92.2345,VALID,0,VALID,24.0134,VALID,54,VALID,0,
2010-03-30, 01:29:04,VALID,1000.66,VALID,0,VALID,92.2726,VALID,0,VALID,24.0329,VALID,54,VALID,0,
2010-03-30, 01:30:04,VALID,1000.68,VALID,0,VALID,92.3718,VALID,0,VALID,24.0329,VALID,54,VALID,0,
2010-03-30, 01:31:04,VALID,1000.64,VALID,0,VALID,92.4405,VALID,0,VALID,24.0701,VALID,54,VALID,0,
2010-03-30, 01:32:04,VALID,1000.62,VALID,0,VALID,92.3337,VALID,0,VALID,24.0915,VALID,54,VALID,0,
2010-03-30, 01:33:04,VALID,1000.65,VALID,0,VALID,92.2345,VALID,0,VALID,24.0525,VALID,57,VALID,0,
2010-03-30, 01:34:04,VALID,1000.63,VALID,0,VALID,92.1429,VALID,0,VALID,24.0134,VALID,57,VALID,0,
2010-03-30, 01:35:04,VALID,1000.65,VALID,0,VALID,92.1887,VALID,0,VALID,23.9939,VALID,57,VALID,0,
2010-03-30, 01:36:04,VALID,1000.65,VALID,0,VALID,92.1582,VALID,0,VALID,23.9744,VALID,57,VALID,0,
2010-03-30, 01:37:04,VALID,1000.65,VALID,0,VALID,92.1811,VALID,0,VALID,23.9744,VALID,62,VALID,0,
2010-03-30, 01:38:04,VALID,1000.69,VALID,0,VALID,92.2192,VALID,0,VALID,23.9549,VALID,68,VALID,0,
2010-03-30, 01:39:04,VALID,1000.67,VALID,0,VALID,92.1124,VALID,0,VALID,23.9354,VALID,68,VALID,0,
2010-03-30, 01:40:04,VALID,1000.67,VALID,0,VALID,91.9445,VALID,0,VALID,23.875,VALID,68,VALID,0,
2010-03-30, 01:41:04,VALID,1000.69,VALID,0,VALID,92.0209,VALID,0,VALID,23.8573,VALID,346,VALID,0,
2010-03-30, 01:42:04,VALID,1000.7,VALID,0,VALID,92.0971,VALID,0,VALID,23.836,VALID,345,VALID,0,
2010-03-30, 01:43:04,VALID,1000.71,VALID,0,VALID,92.1887,VALID,0,VALID,23.836,VALID,345,VALID,0,
2010-03-30, 01:44:04,VALID,1000.68,VALID,0,VALID,92.2955,VALID,0,VALID,23.8963,VALID,345,VALID,0,
2010-03-30, 01:45:04,VALID,1000.67,VALID,0,VALID,92.2879,VALID,0,VALID,23.8963,VALID,345,VALID,0,
2010-03-30, 01:46:04,VALID,1000.66,VALID,0,VALID,92.3566,VALID,0,VALID,23.9159,VALID,345,VALID,0,
2010-03-30, 01:47:04,VALID,1000.68,VALID,0,VALID,92.41,VALID,0,VALID,23.9354,VALID,345,VALID,0,
2010-03-30, 01:48:04,VALID,1000.66,VALID,0,VALID,92.4405,VALID,0,VALID,23.9531,VALID,345,VALID,0,
2010-03-30, 01:49:04,VALID,1000.64,VALID,0,VALID,92.326,VALID,0,VALID,23.9531,VALID,345,VALID,0,
2010-03-30, 01:50:04,VALID,1000.64,VALID,0,VALID,92.1582,VALID,0,VALID,23.9159,VALID,345,VALID,0,
2010-03-30, 01:51:04,VALID,1000.64,VALID,0,VALID,92.2421,VALID,0,VALID,23.9159,VALID,345,VALID,0,
2010-03-30, 01:52:04,VALID,1000.65,VALID,0,VALID,92.3031,VALID,0,VALID,23.9354,VALID,345,VALID,0,
2010-03-30, 01:53:04,VALID,1000.64,VALID,0,VALID,92.3566,VALID,0,VALID,23.9336,VALID,345,VALID,0,
2010-03-30, 01:54:04,VALID,1000.64,VALID,0,VALID,92.3871,VALID,0,VALID,23.9549,VALID,345,VALID,0,
2010-03-30, 01:55:04,VALID,1000.65,VALID,0,VALID,92.0743,VALID,0,VALID,23.875,VALID,345,VALID,0,
2010-03-30, 01:56:04,VALID,1000.65,VALID,0,VALID,92.5091,VALID,0,VALID,23.914,VALID,345,VALID,0,
2010-03-30, 01:57:04,VALID,1000.68,VALID,0,VALID,92.5091,VALID,0,VALID,23.9354,VALID,89,VALID,0,
2010-03-30, 01:58:04,VALID,1000.66,VALID,0,VALID,92.5091,VALID,0,VALID,23.9549,VALID,95,VALID,0,
2010-03-30, 01:59:04,VALID,1000.67,VALID,0,VALID,92.4557,VALID,0,VALID,23.9336,VALID,95,VALID,0,
2010-03-30, 02:00:04,VALID,1000.67,VALID,0,VALID,92.4481,VALID,0,VALID,23.9336,VALID,95,VALID,0,
2010-03-30, 02:01:04,VALID,1000.67,VALID,0,VALID,92.4252,VALID,0,VALID,23.9531,VALID,95,VALID,0,
2010-03-30, 02:02:04,VALID,1000.66,VALID,0,VALID,92.326,VALID,0,VALID,23.9549,VALID,95,VALID,0,
2010-03-30, 02:03:04,VALID,1000.7,VALID,0,VALID,92.2955,VALID,0,VALID,23.914,VALID,95,VALID,0,
2010-03-30, 02:04:04,VALID,1000.69,VALID,0,VALID,92.3031,VALID,0,VALID,23.9549,VALID,344,VALID,0,
2010-03-30, 02:05:04,VALID,1000.65,VALID,0,VALID,92.2726,VALID,0,VALID,23.914,VALID,341,VALID,0,
2010-03-30, 02:06:04,VALID,1000.69,VALID,0,VALID,92.2879,VALID,0,VALID,23.9354,VALID,341,VALID,0,
2010-03-30, 02:07:04,VALID,1000.64,VALID,0,VALID,92.3108,VALID,0,VALID,23.9354,VALID,341,VALID,0,
2010-03-30, 02:08:04,VALID,1000.63,VALID,0,VALID,92.3337,VALID,0,VALID,23.9354,VALID,341,VALID,0,
2010-03-30, 02:09:04,VALID,1000.63,VALID,0,VALID,92.532,VALID,0,VALID,23.9531,VALID,13,VALID,0,
2010-03-30, 02:10:04,VALID,1000.62,VALID,0,VALID,92.532,VALID,0,VALID,23.9921,VALID,58,VALID,0,
2010-03-30, 02:11:04,VALID,1000.65,VALID,0,VALID,92.4481,VALID,0,VALID,24.0134,VALID,58,VALID,0,
2010-03-30, 02:12:04,VALID,1000.69,VALID,0,VALID,92.4405,VALID,0,VALID,24.0329,VALID,58,VALID,0,
2010-03-30, 02:13:04,VALID,1000.69,VALID,0,VALID,92.3566,VALID,0,VALID,24.0116,VALID,59,VALID,0,
2010-03-30, 02:14:04,VALID,1000.69,VALID,0,VALID,92.2116,VALID,0,VALID,23.9726,VALID,64,VALID,0,
2010-03-30, 02:15:04,VALID,1000.71,VALID,0,VALID,92.0666,VALID,0,VALID,23.9354,VALID,59,VALID,0,
2010-03-30, 02:16:04,VALID,1000.68,VALID,0,VALID,92.0209,VALID,0,VALID,23.875,VALID,71,VALID,0,
2010-03-30, 02:17:04,VALID,1000.66,VALID,0,VALID,91.9903,VALID,0,VALID,23.8768,VALID,71,VALID,0,
2010-03-30, 02:18:04,VALID,1000.65,VALID,0,VALID,92.0895,VALID,0,VALID,23.836,VALID,71,VALID,0,
2010-03-30, 02:19:04,VALID,1000.63,VALID,0,VALID,92.12,VALID,0,VALID,23.8573,VALID,71,VALID,0,
2010-03-30, 02:20:04,VALID,1000.64,VALID,0,VALID,92.0971,VALID,0,VALID,23.8573,VALID,71,VALID,0,
2010-03-30, 02:21:04,VALID,1000.62,VALID,0,VALID,92.0514,VALID,0,VALID,23.8378,VALID,71,VALID,0,
2010-03-30, 02:22:04,VALID,1000.59,VALID,0,VALID,92.2268,VALID,0,VALID,23.8573,VALID,71,VALID,0,
2010-03-30, 02:23:04,VALID,1000.59,VALID,0,VALID,92.1811,VALID,0,VALID,23.8573,VALID,71,VALID,0,
2010-03-30, 02:24:04,VALID,1000.59,VALID,0,VALID,92.2345,VALID,0,VALID,23.8573,VALID,71,VALID,0,
2010-03-30, 02:25:04,VALID,1000.58,VALID,0,VALID,92.204,VALID,0,VALID,23.8378,VALID,71,VALID,0,
2010-03-30, 02:26:04,VALID,1000.6,VALID,0,VALID,92.0971,VALID,0,VALID,23.8183,VALID,71,VALID,0,
2010-03-30, 02:27:04,VALID,1000.6,VALID,0,VALID,92.1124,VALID,0,VALID,23.7988,VALID,288,VALID,0,
2010-03-30, 02:28:04,VALID,1000.58,VALID,0,VALID,92.2421,VALID,0,VALID,23.7988,VALID,270,VALID,0,
2010-03-30, 02:29:04,VALID,1000.58,VALID,0,VALID,92.3031,VALID,0,VALID,23.8183,VALID,270,VALID,0,
2010-03-30, 02:30:04,VALID,1000.62,VALID,0,VALID,92.2803,VALID,0,VALID,23.8378,VALID,270,VALID,0,
2010-03-30, 02:31:04,VALID,1000.59,VALID,0,VALID,92.2879,VALID,0,VALID,23.8378,VALID,270,VALID,0,
2010-03-30, 02:32:04,VALID,1000.6,VALID,0,VALID,92.3413,VALID,0,VALID,23.8573,VALID,270,VALID,0,
2010-03-30, 02:33:04,VALID,1000.58,VALID,0,VALID,92.2955,VALID,0,VALID,23.8573,VALID,270,VALID,0,
2010-03-30, 02:34:04,VALID,1000.56,VALID,0,VALID,92.1582,VALID,0,VALID,23.8378,VALID,270,VALID,0,
2010-03-30, 02:35:04,VALID,1000.6,VALID,0,VALID,92.265,VALID,0,VALID,23.8378,VALID,199,VALID,0,
2010-03-30, 02:36:04,VALID,1000.58,VALID,0,VALID,92.2268,VALID,0,VALID,23.8201,VALID,119,VALID,0,
2010-03-30, 02:37:04,VALID,1000.57,VALID,0,VALID,92.2421,VALID,0,VALID,23.7988,VALID,110,VALID,0,
2010-03-30, 02:38:04,VALID,1000.6,VALID,0,VALID,92.1353,VALID,0,VALID,23.7597,VALID,111,VALID,0,
2010-03-30, 02:39:04,VALID,1000.61,VALID,0,VALID,92.1429,VALID,0,VALID,23.7402,VALID,110,VALID,0,
2010-03-30, 02:40:04,VALID,1000.63,VALID,0,VALID,92.12,VALID,0,VALID,23.7207,VALID,110,VALID,0,
2010-03-30, 02:41:04,VALID,1000.65,VALID,0,VALID,92.1506,VALID,0,VALID,23.7012,VALID,110,VALID,0,
2010-03-30, 02:42:04,VALID,1000.63,VALID,0,VALID,92.1506,VALID,0,VALID,23.6799,VALID,110,VALID,0,
2010-03-30, 02:43:04,VALID,1000.63,VALID,0,VALID,92.1963,VALID,0,VALID,23.7012,VALID,110,VALID,0,
2010-03-30, 02:44:04,VALID,1000.62,VALID,0,VALID,92.2574,VALID,0,VALID,23.6817,VALID,110,VALID,0,
2010-03-30, 02:45:04,VALID,1000.63,VALID,0,VALID,92.2879,VALID,0,VALID,23.7012,VALID,110,VALID,0,
2010-03-30, 02:46:04,VALID,1000.62,VALID,0,VALID,92.1887,VALID,0,VALID,23.6799,VALID,110,VALID,0,
2010-03-30, 02:47:04,VALID,1000.63,VALID,0,VALID,92.3184,VALID,0,VALID,23.7012,VALID,110,VALID,0,
2010-03-30, 02:48:04,VALID,1000.61,VALID,0,VALID,92.2879,VALID,0,VALID,23.7207,VALID,110,VALID,0,
2010-03-30, 02:49:04,VALID,1000.58,VALID,0,VALID,92.2192,VALID,0,VALID,23.7012,VALID,110,VALID,0,
2010-03-30, 02:50:04,VALID,1000.58,VALID,0,VALID,92.2116,VALID,0,VALID,23.6604,VALID,110,VALID,0,
2010-03-30, 02:51:04,VALID,1000.55,VALID,0,VALID,92.2268,VALID,0,VALID,23.6622,VALID,110,VALID,0,
2010-03-30, 02:52:04,VALID,1000.56,VALID,0,VALID,92.12,VALID,0,VALID,23.6232,VALID,110,VALID,0,
2010-03-30, 02:53:04,VALID,1000.54,VALID,0,VALID,92.265,VALID,0,VALID,23.6232,VALID,110,VALID,0,
2010-03-30, 02:54:04,VALID,1000.55,VALID,0,VALID,92.4481,VALID,0,VALID,23.6427,VALID,110,VALID,0,
2010-03-30, 02:55:04,VALID,1000.54,VALID,0,VALID,92.471,VALID,0,VALID,23.6622,VALID,109,VALID,0,
2010-03-30, 02:56:04,VALID,1000.57,VALID,0,VALID,92.4252,VALID,0,VALID,23.6817,VALID,61,VALID,0,
2010-03-30, 02:57:04,VALID,1000.56,VALID,0,VALID,92.2726,VALID,0,VALID,23.6427,VALID,61,VALID,0,
2010-03-30, 02:58:04,VALID,1000.57,VALID,0,VALID,92.4939,VALID,0,VALID,23.6622,VALID,73,VALID,0,
2010-03-30, 02:59:04,VALID,1000.58,VALID,0,VALID,92.4634,VALID,0,VALID,23.6817,VALID,75,VALID,0,
2010-03-30, 03:00:04,VALID,1000.58,VALID,0,VALID,92.3871,VALID,0,VALID,23.6799,VALID,75,VALID,0,
2010-03-30, 03:01:04,VALID,1000.57,VALID,0,VALID,92.3337,VALID,0,VALID,23.6622,VALID,75,VALID,0,
2010-03-30, 03:02:04,VALID,1000.58,VALID,0,VALID,92.3184,VALID,0.112286,VALID,23.6409,VALID,75,VALID,0,
2010-03-30, 03:03:04,VALID,1000.56,VALID,0,VALID,92.3566,VALID,0,VALID,23.6604,VALID,74,VALID,0,
2010-03-30, 03:04:04,VALID,1000.51,VALID,0,VALID,92.3489,VALID,0,VALID,23.7012,VALID,75,VALID,0,
2010-03-30, 03:05:04,VALID,1000.48,VALID,0,VALID,92.3489,VALID,0,VALID,23.7207,VALID,75,VALID,0,
2010-03-30, 03:06:04,VALID,1000.45,VALID,0,VALID,92.2803,VALID,0,VALID,23.7207,VALID,75,VALID,0,
2010-03-30, 03:07:04,VALID,1000.45,VALID,0,VALID,92.2879,VALID,0,VALID,23.7012,VALID,75,VALID,0,
2010-03-30, 03:08:04,VALID,1000.42,VALID,0,VALID,92.2574,VALID,0,VALID,23.6817,VALID,75,VALID,0,
2010-03-30, 03:09:04,VALID,1000.43,VALID,0,VALID,92.2726,VALID,0,VALID,23.7012,VALID,78,VALID,0,
2010-03-30, 03:10:04,VALID,1000.41,VALID,0,VALID,92.2726,VALID,0,VALID,23.6817,VALID,79,VALID,0,
2010-03-30, 03:11:04,VALID,1000.43,VALID,0,VALID,92.3031,VALID,0,VALID,23.7012,VALID,80,VALID,0,
2010-03-30, 03:12:04,VALID,1000.47,VALID,0,VALID,92.2955,VALID,0,VALID,23.7012,VALID,80,VALID,0,
2010-03-30, 03:13:04,VALID,1000.46,VALID,0,VALID,92.2497,VALID,0,VALID,23.6817,VALID,80,VALID,0,
2010-03-30, 03:14:04,VALID,1000.46,VALID,0,VALID,92.2192,VALID,0,VALID,23.6817,VALID,80,VALID,0,
2010-03-30, 03:15:04,VALID,1000.45,VALID,0,VALID,92.2192,VALID,0,VALID,23.6604,VALID,80,VALID,0,
2010-03-30, 03:16:04,VALID,1000.44,VALID,0,VALID,92.2574,VALID,0,VALID,23.6604,VALID,80,VALID,0,
2010-03-30, 03:17:04,VALID,1000.43,VALID,0,VALID,92.2955,VALID,0,VALID,23.6604,VALID,80,VALID,0,
2010-03-30, 03:18:04,VALID,1000.41,VALID,0,VALID,92.326,VALID,0,VALID,23.7012,VALID,80,VALID,0,
2010-03-30, 03:19:04,VALID,1000.42,VALID,0,VALID,92.4252,VALID,0,VALID,23.7207,VALID,80,VALID,0,
2010-03-30, 03:20:04,VALID,1000.44,VALID,0,VALID,92.4481,VALID,0,VALID,23.7402,VALID,86,VALID,0,
2010-03-30, 03:21:04,VALID,1000.44,VALID,0,VALID,92.3489,VALID,0,VALID,23.7384,VALID,90,VALID,0,
2010-03-30, 03:22:04,VALID,1000.41,VALID,0,VALID,92.3031,VALID,0,VALID,23.7189,VALID,97,VALID,0,
2010-03-30, 03:23:04,VALID,1000.43,VALID,0,VALID,92.2803,VALID,0,VALID,23.7402,VALID,97,VALID,0,
2010-03-30, 03:24:04,VALID,1000.43,VALID,0,VALID,92.12,VALID,0,VALID,23.7012,VALID,106,VALID,0,
2010-03-30, 03:25:04,VALID,1000.44,VALID,0,VALID,92.2116,VALID,0,VALID,23.7012,VALID,110,VALID,0.897266,
2010-03-30, 03:26:04,VALID,1000.45,VALID,0,VALID,92.2268,VALID,0,VALID,23.7012,VALID,115,VALID,0.719531,
2010-03-30, 03:27:04,VALID,1000.43,VALID,0,VALID,92.204,VALID,0,VALID,23.7207,VALID,126,VALID,0.626953,
2010-03-30, 03:28:04,VALID,1000.46,VALID,0,VALID,92.2345,VALID,0,VALID,23.7189,VALID,128,VALID,0.712109,
2010-03-30, 03:29:04,VALID,1000.45,VALID,0,VALID,92.1734,VALID,0,VALID,23.7207,VALID,137,VALID,0.946094,
2010-03-30, 03:30:04,VALID,1000.44,VALID,0,VALID,92.1811,VALID,0,VALID,23.7402,VALID,124,VALID,1.27539,
2010-03-30, 03:31:04,VALID,1000.43,VALID,0,VALID,92.2116,VALID,0,VALID,23.7793,VALID,111,VALID,0.943359,
2010-03-30, 03:32:04,VALID,1000.43,VALID,0,VALID,92.1582,VALID,0,VALID,23.797,VALID,107,VALID,0.599609,
2010-03-30, 03:33:04,VALID,1000.39,VALID,0,VALID,91.9903,VALID,0,VALID,23.8378,VALID,104,VALID,0.454688,
2010-03-30, 03:34:04,VALID,1000.41,VALID,0,VALID,91.8301,VALID,0,VALID,23.8573,VALID,89,VALID,0.475,
2010-03-30, 03:35:04,VALID,1000.38,VALID,0,VALID,91.7157,VALID,0,VALID,23.797,VALID,89,VALID,0,
2010-03-30, 03:36:04,VALID,1000.39,VALID,0,VALID,91.7462,VALID,0,VALID,23.8183,VALID,89,VALID,0,
2010-03-30, 03:37:04,VALID,1000.44,VALID,0,VALID,91.7843,VALID,0,VALID,23.8183,VALID,89,VALID,0,
2010-03-30, 03:38:04,VALID,1000.42,VALID,0,VALID,91.7691,VALID,0,VALID,23.8378,VALID,90,VALID,0.169141,
2010-03-30, 03:39:04,VALID,1000.46,VALID,0,VALID,91.7233,VALID,0,VALID,23.8165,VALID,90,VALID,0.832031,
2010-03-30, 03:40:04,VALID,1000.51,VALID,0,VALID,91.6394,VALID,0,VALID,23.8165,VALID,99,VALID,1.04648,
2010-03-30, 03:41:04,VALID,1000.48,VALID,0,VALID,91.5326,VALID,0,VALID,23.8165,VALID,105,VALID,1.26406,
2010-03-30, 03:42:04,VALID,1000.49,VALID,0,VALID,91.4486,VALID,0,VALID,23.797,VALID,110,VALID,1.1457,
2010-03-30, 03:43:04,VALID,1000.48,VALID,0,VALID,91.3418,VALID,0,VALID,23.7579,VALID,111,VALID,0.85625,
2010-03-30, 03:44:04,VALID,1000.47,VALID,0,VALID,91.3952,VALID,0,VALID,23.7402,VALID,108,VALID,0.241406,
2010-03-30, 03:45:04,VALID,1000.48,VALID,0,VALID,91.4257,VALID,0,VALID,23.7207,VALID,108,VALID,0,
2010-03-30, 03:46:04,VALID,1000.46,VALID,0,VALID,91.4868,VALID,0,VALID,23.7012,VALID,108,VALID,0,
2010-03-30, 03:47:04,VALID,1000.47,VALID,0,VALID,91.6317,VALID,0,VALID,23.6817,VALID,328,VALID,0.465234,
2010-03-30, 03:48:04,VALID,1000.49,VALID,0,VALID,91.6699,VALID,0,VALID,23.6799,VALID,328,VALID,0,
2010-03-30, 03:49:04,VALID,1000.44,VALID,0,VALID,91.6623,VALID,0,VALID,23.6604,VALID,328,VALID,0,
2010-03-30, 03:50:04,VALID,1000.47,VALID,0,VALID,91.6317,VALID,0,VALID,23.6817,VALID,328,VALID,0,
2010-03-30, 03:51:04,VALID,1000.45,VALID,0,VALID,91.6241,VALID,0,VALID,23.6622,VALID,328,VALID,0,
2010-03-30, 03:52:04,VALID,1000.43,VALID,0,VALID,91.6775,VALID,0,VALID,23.6427,VALID,328,VALID,0,
2010-03-30, 03:53:04,VALID,1000.43,VALID,0,VALID,91.7157,VALID,0,VALID,23.6409,VALID,328,VALID,0,
2010-03-30, 03:54:04,VALID,1000.45,VALID,0,VALID,91.6317,VALID,0,VALID,23.6427,VALID,328,VALID,0,
2010-03-30, 03:55:04,VALID,1000.4,VALID,0,VALID,91.6241,VALID,0,VALID,23.6427,VALID,328,VALID,0,
2010-03-30, 03:56:04,VALID,1000.42,VALID,0,VALID,91.7004,VALID,0,VALID,23.6214,VALID,328,VALID,0,
2010-03-30, 03:57:04,VALID,1000.43,VALID,0,VALID,91.502,VALID,0,VALID,23.6214,VALID,328,VALID,0,